Hourly Data Report for June 19, 2003

TORONTO CITY
ONTARIO

43°40'00.000" N
79°24'00.000" W
112.50 m
6158355
71508
XTO

Download Data

Hourly Data (June 2003)
Hourly Data Report for June 19, 2003
TIME
LST
Temp Definition
°C
Dew Point Definition
°C
Rel Hum Definition
%
Precip. Amount Definition
mm

Wind Dir Definition
10's deg

Wind Spd Definition
km/h
Visibility Definition
km
Stn Press Definition
kPa
Hmdx Definition


Wind Chill Definition


Weather Definition


00:00 17.7 15.3 86   LegendMM LegendMM LegendMM 99.52     LegendNANA
01:00 18.2 16.5 90   LegendMM LegendMM LegendMM 99.50     LegendNANA
02:00 17.8 16.3 91   LegendMM LegendMM LegendMM 99.49     LegendNANA
03:00 17.6 16.5 93   LegendMM LegendMM LegendMM 99.45     LegendNANA
04:00 17.5 16.9 96   LegendMM LegendMM LegendMM 99.45     LegendNANA
05:00 17.6 16.6 94   LegendMM LegendMM LegendMM 99.50     LegendNANA
06:00 15.7 13.6 87   LegendMM LegendMM LegendMM 99.60     LegendNANA
07:00 15.9 14.3 90   LegendMM LegendMM LegendMM 99.66     LegendNANA
08:00 16.5 14.2 86   LegendMM LegendMM LegendMM 99.70     LegendNANA
09:00 17.0 13.9 82   LegendMM LegendMM LegendMM 99.73     LegendNANA
10:00 17.3 13.5 78   LegendMM LegendMM LegendMM 99.76     LegendNANA
11:00 18.3 12.3 68   LegendMM LegendMM LegendMM 99.80     LegendNANA
12:00 19.6 12.5 64   LegendMM LegendMM LegendMM 99.80     LegendNANA
13:00
14:00 20.6 10.9 54   LegendMM LegendMM LegendMM 99.80     LegendNANA
15:00 19.8 10.4 55   LegendMM LegendMM LegendMM 99.85     LegendNANA
16:00 19.7 10.2 54   LegendMM LegendMM LegendMM 99.88     LegendNANA
17:00 19.1 9.4 53   LegendMM LegendMM LegendMM 99.89     LegendNANA
18:00 19.0 8.9 52   LegendMM LegendMM LegendMM 99.92     LegendNANA
19:00 17.8 7.6 51   LegendMM LegendMM LegendMM 99.98     LegendNANA
20:00 16.7 7.2 53   LegendMM LegendMM LegendMM 100.02     LegendNANA
21:00 16.0 6.7 54   LegendMM LegendMM LegendMM 100.09     LegendNANA
22:00 15.7 6.7 55   LegendMM LegendMM LegendMM 100.14     LegendNANA
23:00 15.1 6.9 58   LegendMM LegendMM LegendMM 100.18     LegendNANA

Notes on Data Quality.

Legend

  • E = Estimated
  • M = Missing
  • NA = Not Available*
  • [empty] = Indicates an unobserved value
Date modified: